TimeCDT,TemperatureF,Dew PointF,Humidity,Sea Level PressureIn,VisibilityMPH,Wind Direction,Wind SpeedMPH,Gust SpeedMPH,PrecipitationIn,Events,Conditions,WindDirDegrees,DateUTC
12:14 AM,10.4,-0.4,62,30.30,10.0,SSE,5.8,-,N/A,,Clear,150,2013-04-03 05:14:00
12:33 AM,10.4,-0.4,62,30.30,10.0,SSE,6.9,-,N/A,,Clear,160,2013-04-03 05:33:00
12:53 AM,6.8,-2.2,67,30.29,10.0,SSE,5.8,-,N/A,,Clear,160,2013-04-03 05:53:00
1:14 AM,8.6,-2.2,62,30.29,10.0,SE,5.8,-,N/A,,Clear,140,2013-04-03 06:14:00
1:33 AM,5.0,-4.0,66,30.29,10.0,SSE,5.8,-,N/A,,Clear,160,2013-04-03 06:33:00
1:53 AM,5.0,-4.0,66,30.28,10.0,SE,5.8,-,N/A,,Clear,140,2013-04-03 06:53:00
2:14 AM,6.8,-4.0,61,30.28,10.0,SSE,4.6,-,N/A,,Clear,150,2013-04-03 07:14:00
2:33 AM,5.0,-5.8,61,30.28,10.0,SSE,5.8,-,N/A,,Clear,150,2013-04-03 07:33:00
2:53 AM,6.8,-4.0,61,30.27,10.0,SE,5.8,-,N/A,,Clear,140,2013-04-03 07:53:00
3:14 AM,6.8,-4.0,61,30.26,10.0,SSE,5.8,-,N/A,,Clear,150,2013-04-03 08:14:00
3:33 AM,1.4,-5.8,72,30.26,10.0,SSE,5.8,-,N/A,,Clear,150,2013-04-03 08:33:00
3:53 AM,3.2,-5.8,66,30.26,10.0,South,5.8,-,N/A,,Clear,180,2013-04-03 08:53:00
4:14 AM,3.2,-5.8,66,30.26,10.0,SSE,5.8,-,N/A,,Clear,150,2013-04-03 09:14:00
4:33 AM,3.2,-5.8,66,30.25,10.0,SSE,4.6,-,N/A,,Clear,150,2013-04-03 09:33:00
4:53 AM,5.0,-5.8,61,30.25,10.0,South,5.8,-,N/A,,Clear,170,2013-04-03 09:53:00
5:13 AM,3.2,-5.8,66,30.25,10.0,SSE,5.8,-,N/A,,Clear,160,2013-04-03 10:13:00
5:33 AM,1.4,-5.8,72,30.24,10.0,South,4.6,-,N/A,,Clear,170,2013-04-03 10:33:00
5:54 AM,1.4,-5.8,72,30.24,10.0,South,3.5,-,N/A,,Clear,170,2013-04-03 10:54:00
6:13 AM,1.4,-5.8,72,30.23,10.0,Calm,Calm,-,N/A,,Clear,0,2013-04-03 11:13:00
6:33 AM,1.4,-5.8,72,30.22,10.0,SSE,3.5,-,N/A,,Clear,160,2013-04-03 11:33:00
6:54 AM,1.4,-5.8,72,30.21,10.0,SSE,5.8,-,N/A,,Scattered Clouds,160,2013-04-03 11:54:00
7:13 AM,3.2,-5.8,66,30.21,10.0,South,5.8,-,N/A,,Scattered Clouds,170,2013-04-03 12:13:00
7:33 AM,5.0,-2.2,72,30.21,10.0,South,6.9,-,N/A,,Clear,170,2013-04-03 12:33:00
7:54 AM,5.0,-2.2,72,30.20,10.0,SSE,6.9,-,N/A,,Scattered Clouds,160,2013-04-03 12:54:00
8:13 AM,8.6,1.4,73,30.20,10.0,SSE,6.9,-,N/A,,Mostly Cloudy,160,2013-04-03 13:13:00
8:33 AM,8.6,1.4,73,30.18,10.0,South,9.2,-,N/A,,Mostly Cloudy,170,2013-04-03 13:33:00
8:54 AM,10.4,3.2,73,30.17,10.0,South,10.4,-,N/A,,Mostly Cloudy,170,2013-04-03 13:54:00
9:13 AM,12.2,6.8,79,30.16,10.0,SSE,9.2,-,N/A,,Scattered Clouds,160,2013-04-03 14:13:00
9:33 AM,15.8,8.6,73,30.15,10.0,SSE,10.4,-,N/A,,Clear,160,2013-04-03 14:33:00
9:53 AM,17.6,8.6,68,30.13,10.0,SSE,16.1,-,N/A,,Scattered Clouds,160,2013-04-03 14:53:00
10:13 AM,17.6,8.6,68,30.12,10.0,SSE,19.6,-,N/A,,Clear,150,2013-04-03 15:13:00
10:34 AM,19.4,10.4,68,30.10,10.0,SSE,19.6,-,N/A,,Scattered Clouds,150,2013-04-03 15:34:00
10:54 AM,21.2,12.2,68,30.10,10.0,SSE,18.4,-,N/A,,Mostly Cloudy,160,2013-04-03 15:54:00
11:13 AM,23.0,14.0,68,30.09,10.0,SSE,16.1,-,N/A,,Mostly Cloudy,160,2013-04-03 16:13:00
11:34 AM,24.8,17.6,74,30.08,10.0,SSE,16.1,-,N/A,,Scattered Clouds,160,2013-04-03 16:34:00
11:54 AM,26.6,17.6,69,30.07,10.0,SSE,17.3,-,N/A,,Scattered Clouds,160,2013-04-03 16:54:00
12:13 PM,26.6,17.6,69,30.05,10.0,SSE,17.3,-,N/A,,Scattered Clouds,160,2013-04-03 17:13:00
12:34 PM,28.4,17.6,64,30.04,10.0,SSE,19.6,-,N/A,,Scattered Clouds,160,2013-04-03 17:34:00
12:54 PM,28.4,19.4,69,30.02,10.0,SSE,17.3,-,N/A,,Scattered Clouds,150,2013-04-03 17:54:00
1:13 PM,30.2,21.2,69,30.01,10.0,SSE,16.1,-,N/A,,Scattered Clouds,160,2013-04-03 18:13:00
1:34 PM,30.2,21.2,69,29.99,10.0,SSE,18.4,-,N/A,,Mostly Cloudy,150,2013-04-03 18:34:00
1:54 PM,30.2,21.2,69,29.97,10.0,SSE,20.7,-,N/A,,Scattered Clouds,150,2013-04-03 18:54:00
2:13 PM,32.0,23.0,69,29.95,10.0,SSE,21.9,-,N/A,,Clear,150,2013-04-03 19:13:00
2:34 PM,33.8,24.8,70,29.94,10.0,SSE,20.7,-,N/A,,Clear,160,2013-04-03 19:34:00
2:54 PM,33.8,24.8,70,29.92,10.0,SSE,23.0,-,N/A,,Clear,160,2013-04-03 19:54:00
3:13 PM,35.6,24.8,65,29.91,10.0,SSE,21.9,-,N/A,,Clear,160,2013-04-03 20:13:00
3:34 PM,35.6,24.8,65,29.89,10.0,SSE,23.0,-,N/A,,Clear,160,2013-04-03 20:34:00
3:53 PM,35.6,24.8,65,29.88,10.0,South,21.9,-,N/A,,Clear,170,2013-04-03 20:53:00
4:13 PM,35.6,24.8,65,29.86,10.0,SSE,20.7,-,N/A,,Scattered Clouds,160,2013-04-03 21:13:00
4:34 PM,35.6,26.6,70,29.86,10.0,South,18.4,-,N/A,,Scattered Clouds,170,2013-04-03 21:34:00
4:53 PM,35.6,28.4,75,29.86,10.0,South,10.4,-,N/A,,Scattered Clouds,190,2013-04-03 21:53:00
5:13 PM,35.6,28.4,75,29.85,10.0,South,13.8,-,N/A,,Scattered Clouds,180,2013-04-03 22:13:00
5:33 PM,37.4,26.6,65,29.86,10.0,SSW,17.3,21.9,N/A,,Mostly Cloudy,210,2013-04-03 22:33:00
5:54 PM,39.2,24.8,56,29.86,10.0,SW,26.5,34.5,N/A,,Mostly Cloudy,230,2013-04-03 22:54:00
6:13 PM,39.2,26.6,61,29.86,10.0,SW,31.1,43.7,N/A,,Scattered Clouds,220,2013-04-03 23:13:00
6:34 PM,37.4,26.6,65,29.87,10.0,SW,24.2,38.0,N/A,,Mostly Cloudy,220,2013-04-03 23:34:00
6:53 PM,37.4,26.6,65,29.86,10.0,SW,23.0,27.6,N/A,,Mostly Cloudy,220,2013-04-03 23:53:00
7:13 PM,37.4,28.4,70,29.84,10.0,SSW,20.7,27.6,N/A,,Overcast,210,2013-04-04 00:13:00
7:33 PM,37.4,28.4,70,29.88,10.0,WSW,20.7,24.2,N/A,,Mostly Cloudy,250,2013-04-04 00:33:00
7:53 PM,37.4,28.4,70,29.88,10.0,WSW,15.0,18.4,N/A,,Overcast,240,2013-04-04 00:53:00
8:14 PM,37.4,28.4,70,29.88,10.0,WSW,18.4,25.3,N/A,,Overcast,250,2013-04-04 01:14:00
8:33 PM,37.4,28.4,70,29.87,10.0,WSW,15.0,19.6,N/A,,Overcast,240,2013-04-04 01:33:00
8:54 PM,35.6,28.4,75,29.88,10.0,West,11.5,-,N/A,,Overcast,260,2013-04-04 01:54:00
9:13 PM,35.6,28.4,75,29.90,10.0,West,10.4,-,N/A,,Overcast,260,2013-04-04 02:13:00
9:34 PM,35.6,28.4,75,29.90,10.0,West,12.7,-,N/A,,Overcast,260,2013-04-04 02:34:00
9:53 PM,35.6,28.4,75,29.90,10.0,West,9.2,-,N/A,,Overcast,270,2013-04-04 02:53:00
10:14 PM,33.8,28.4,81,29.91,10.0,West,9.2,-,N/A,,Scattered Clouds,260,2013-04-04 03:14:00
10:33 PM,33.8,28.4,81,29.91,10.0,West,5.8,-,N/A,,Clear,260,2013-04-04 03:33:00
10:54 PM,33.8,28.4,81,29.91,10.0,West,5.8,-,N/A,,Clear,260,2013-04-04 03:54:00
11:14 PM,32.0,28.4,87,29.92,10.0,West,5.8,-,N/A,,Clear,270,2013-04-04 04:14:00
11:33 PM,30.2,28.4,93,29.92,10.0,West,6.9,-,N/A,,Clear,270,2013-04-04 04:33:00
11:54 PM,30.2,28.4,93,29.92,10.0,West,9.2,-,N/A,,Clear,280,2013-04-04 04:54:00